[[{"header":{"parameterUnit":"m.s-1","parameterCategory":1,"la1":30.2992,"la2":30.254,"lo1":-89.0895,"lo2":-89.0443,"dy":0.0025,"dx":0.0025,"nx":19,"ny":19,"refTime":"2026-03-12T21:00:00:Z","depth":0,"parameterNumber":2,"parameterNumberName":"U-component_of_WINDS"},"data":[0,0,0,-1.1791,-1.1793,-1.1871,-1.1871,-1.1965,-1.1966,0,0,0,0,0,0,0,0,0,0,0,-1.176,-1.1761,-1.1791,-1.1793,-1.1871,-1.1871,-1.1965,-1.1966,0,0,0,0,0,0,0,0,0,0,0,-1.176,-1.176,-1.1761,-1.1793,-1.1871,-1.1871,-1.1965,-1.1909,0,0,0,0,0,0,0,0,0,0,-1.1834,-1.1797,-1.176,-1.1761,-1.1793,-1.187,-1.1871,-1.1906,-1.1912,-1.1926,0,-1.1932,0,-1.195,-1.1971,-1.1972,0,0,0,-1.1799,-1.1792,-1.182,-1.1761,-1.1794,-1.187,-1.1837,-1.191,-1.1917,-1.1934,-1.1934,-1.1937,-1.1952,-1.1972,-1.1972,-1.2021,-1.2021,0,0,-1.1795,-1.1771,-1.1815,-1.1824,-1.1807,-1.1835,-1.184,-1.1914,-1.1914,-1.1934,-1.194,-1.1953,-1.1972,-1.1973,-1.2021,-1.2021,0,0,0,-1.1778,-1.1767,-1.1794,-1.182,-1.1834,-1.1837,-1.1843,-1.191,-1.1921,-1.1941,-1.1954,-1.1973,-1.1974,-1.2021,-1.2021,-1.1992,0,0,0,-1.1776,-1.1758,-1.1792,-1.1777,-1.1832,-1.1872,-1.1837,-1.1916,-1.1925,-1.1954,-1.1973,-1.1975,-1.2021,-1.2021,-1.1993,-1.1983,0,0,0,-1.1758,-1.1756,-1.1764,-1.1776,-1.1808,-1.1872,-1.1886,-1.1918,-1.1933,-1.1972,-1.1975,-1.2021,-1.2021,-1.1994,-1.1984,-1.1989,0,0,0,-1.1732,-1.1737,-1.1763,-1.1775,-1.1807,-1.1852,-1.1886,-1.1922,-1.1951,-1.1973,-1.2021,-1.2021,-1.1994,-1.1985,-1.199,-1.1988,-1.1985,0,0,-1.1725,-1.1735,-1.1745,-1.177,-1.1803,-1.1842,-1.1874,-1.1925,-1.1953,-1.1998,-1.1999,-1.1993,-1.1984,-1.1989,-1.1976,-1.1973,0,0,0,-1.1734,-1.174,-1.1755,-1.1781,-1.1819,-1.1853,-1.1902,-1.1922,-1.1961,-1.1969,-1.1997,-1.1992,-1.1996,-1.1997,-1.1995,-1.2001,-1.202,-1.202,-1.202,-1.1688,-1.1723,-1.1741,-1.1785,-1.1811,-1.1863,-1.1888,-1.1925,-1.1952,-1.1959,-1.1971,-1.1959,-1.1959,-1.1957,-1.1963,-1.1974,-1.1974,-1.1974,-1.1974,-1.1682,-1.1696,-1.1734,-1.1764,-1.1802,-1.183,-1.1883,-1.1902,-1.1937,-1.1951,-1.1957,-1.197,-1.1953,-1.196,-1.1972,-1.1972,-1.1972,-1.1973,-1.1973,-1.1655,-1.1668,-1.1691,-1.1735,-1.1766,-1.1813,-1.1844,-1.1878,-1.1911,-1.1916,-1.1936,-1.1936,-1.1942,-1.1923,-1.1923,-1.1923,-1.1923,-1.1923,-1.1923,-1.1618,-1.1645,-1.1665,-1.1709,-1.1732,-1.1767,-1.1823,-1.1848,-1.1885,-1.1908,-1.1909,-1.1937,-1.1944,-1.1945,-1.1923,-1.1923,-1.1923,-1.1923,-1.1923,-1.1597,-1.1608,-1.1638,-1.1661,-1.1718,-1.1748,-1.1792,-1.1842,-1.1868,-1.1883,-1.1913,-1.1912,-1.1925,-1.1928,-1.1929,-1.1903,-1.1903,-1.1903,-1.1903,-1.1575,-1.1585,-1.1626,-1.1661,-1.17,-1.1744,-1.1783,-1.1829,-1.1878,-1.1898,-1.1907,-1.1912,-1.1913,-1.1927,-1.1929,-1.1931,-1.1906,-1.1906,-1.1906,-1.1565,-1.1581,-1.1605,-1.165,-1.1698,-1.174,-1.1778,-1.1822,-1.1881,-1.1907,-1.1915,-1.1915,-1.1923,-1.1924,-1.1947,-1.195,-1.1954,0,0]},{"header":{"parameterUnit":"m.s-1","parameterCategory":1,"la1":30.2992,"la2":30.254,"lo1":-89.0895,"lo2":-89.0443,"dy":0.0025,"dx":0.0025,"nx":19,"ny":19,"refTime":"2026-03-12T21:00:00:Z","depth":0,"parameterNumber":3,"parameterNumberName":"V-component_of_WINDS"},"data":[0,0,0,2.8619,2.8618,2.8598,2.8598,2.8555,2.8554,0,0,0,0,0,0,0,0,0,0,0,2.8614,2.8614,2.8619,2.8618,2.8598,2.8598,2.8555,2.8554,0,0,0,0,0,0,0,0,0,0,0,2.8614,2.8614,2.8613,2.8618,2.8598,2.8598,2.8555,2.8576,0,0,0,0,0,0,0,0,0,0,2.8599,2.8584,2.8614,2.8613,2.8618,2.8598,2.8598,2.8578,2.8575,2.8556,0,2.8536,0,2.8545,2.855,2.855,0,0,0,2.8626,2.8586,2.8591,2.8613,2.8618,2.8598,2.861,2.8576,2.8573,2.8553,2.8536,2.8535,2.8544,2.855,2.8549,2.8415,2.8414,0,0,2.8627,2.8604,2.8592,2.8588,2.859,2.861,2.8609,2.8575,2.8555,2.8536,2.8534,2.8543,2.8549,2.8549,2.8416,2.8415,0,0,0,2.8625,2.8605,2.8611,2.8589,2.8587,2.8609,2.8608,2.8557,2.8561,2.8534,2.8543,2.8549,2.8548,2.8417,2.8415,2.8342,0,0,0,2.8626,2.8604,2.8611,2.8596,2.8587,2.8571,2.859,2.8563,2.856,2.8543,2.8549,2.8548,2.8418,2.8416,2.8347,2.831,0,0,0,2.8619,2.8603,2.8596,2.8595,2.8586,2.8573,2.8575,2.8563,2.8565,2.855,2.8547,2.8419,2.8417,2.8351,2.8317,2.8267,0,0,0,2.8604,2.8531,2.8595,2.8516,2.8586,2.8528,2.8575,2.8534,2.8512,2.8549,2.8418,2.8416,2.8352,2.8321,2.8271,2.8219,2.8196,0,0,2.8498,2.8517,2.8473,2.853,2.8455,2.8533,2.8448,2.845,2.847,2.8432,2.8429,2.8345,2.8317,2.8268,2.8079,2.8061,0,0,0,2.8431,2.8399,2.8385,2.8363,2.8365,2.8362,2.8381,2.8382,2.8352,2.8446,2.8316,2.83,2.8272,2.8248,2.8232,2.8209,2.8404,2.8405,2.8405,2.8244,2.8276,2.8205,2.8234,2.8214,2.8235,2.8221,2.8227,2.8263,2.8232,2.8219,2.8101,2.8072,2.8061,2.8036,2.8197,2.8197,2.8197,2.8196,2.809,2.8048,2.8102,2.8051,2.8085,2.8044,2.8063,2.8091,2.8057,2.8113,2.809,2.8145,2.8039,2.802,2.8191,2.8192,2.8193,2.8193,2.8194,2.7968,2.7953,2.7958,2.7933,2.7911,2.7944,2.791,2.7943,2.7973,2.7951,2.7941,2.7942,2.7945,2.7945,2.7944,2.7944,2.7943,2.7943,2.7943,2.7838,2.7846,2.7813,2.7811,2.7804,2.7797,2.7821,2.7814,2.7815,2.7841,2.7841,2.788,2.8025,2.8058,2.7936,2.7938,2.7938,2.7939,2.7939,2.7664,2.771,2.7658,2.7651,2.7652,2.7628,2.7672,2.7656,2.7656,2.7638,2.7684,2.7786,2.7807,2.7819,2.7847,2.7678,2.7678,2.7678,2.7678,2.7559,2.7575,2.753,2.7516,2.7507,2.7543,2.7484,2.7504,2.753,2.7532,2.7562,2.7604,2.7616,2.7629,2.7646,2.7673,2.7463,2.7463,2.7462,2.7452,2.7469,2.7412,2.7441,2.7445,2.7448,2.7395,2.7377,2.7417,2.7454,2.7534,2.7543,2.761,2.7631,2.7665,2.7691,2.774,0,0]}]]